Regional Weather Roundup
Issued by NWS Charleston, WV

Home | Current Version | Previous Version | Graphics & Text | Print | Product List | Glossary On
Versions: 1 2 3 4 5 6 7 8 9 10 11 12 13 14 15 16 17 18 19 20 21 22 23 24 25 26 27 28 29 30 31 32 33 34 35 36 37 38 39 40 41 42 43 44 45 46 47 48 49 50
000
ASUS41 KRLX 282110
RWRRLX
West Virginia Regional Weather Roundup
National Weather Service Charleston WV
400 PM EST SUN DEC 28 2014

Note: "fair" indicates few or no clouds below 12,000 feet with no
significant weather and/or obstructions to visibility.

WVZ003-282200-
Northern Panhandle of West Virginia

CITY           SKY/WX    TMP DP  RH WIND       PRES   REMARKS
WHEELING       CLOUDY    37  32  82 CALM      30.07R
$$

WVZ009-282200-
Northwest West Virginia

CITY           SKY/WX    TMP DP  RH WIND       PRES   REMARKS
PARKERSBURG    CLOUDY    37  35  92 NW6       30.13R FOG
$$

WVZ006-282200-
Western West Virginia

CITY           SKY/WX    TMP DP  RH WIND       PRES   REMARKS
HUNTINGTON     CLOUDY    39  38  96 N6        30.09S
$$

WVZ015-282200-
West Central West Virginia

CITY           SKY/WX    TMP DP  RH WIND       PRES   REMARKS
CHARLESTON     LGT RAIN  42  40  92 VRB3      30.07S VSB 1
$$

WVZ022-031-282200-
North Central West Virginia

CITY           SKY/WX    TMP DP  RH WIND       PRES   REMARKS
CLARKSBURG     LGT RAIN  42  41  96 NW3       30.06R FOG
MORGANTOWN     LGT RAIN  39  36  89 VRB6      30.07R FOG
$$

WVZ025-035-042-045-282200-
Southern West Virginia

CITY           SKY/WX    TMP DP  RH WIND       PRES   REMARKS
BECKLEY        CLOUDY    45  42  89 W8        30.04S
LOGAN          MIX PCPN  43  43 100 W3        30.05R VSB 1/2
BLUEFIELD      CLOUDY    47  43  86 W9        30.05R
LEWISBURG      CLOUDY    48  46  91 W5        30.04R
$$

WVZ047-282200-
Northern Mountains of West Virginia

CITY           SKY/WX    TMP DP  RH WIND       PRES   REMARKS
ELKINS         LGT RAIN  43  43 100 N5        30.04R
$$

WVZ052-282200-
Eastern Panhandle of West Virginia

CITY           SKY/WX    TMP DP  RH WIND       PRES   REMARKS
MARTINSBURG    CLOUDY    53  41  63 NW6       29.99R
PETERSBURG     CLOUDY    55  41  60 SW5       30.00R
$$


USA.gov is the U.S. government's official web portal to all federal, state and local government web resources and services.